Location: Newark
(42.8481°N, 0.4872°E)
Time: 08:12:14
(UTC+00:00)

SR - Pass Details

Date: 07 November 2020
Orbit: 579 x 876 km, 66.7° (Epoch: 29 November)

Event Time Altitude Azimuth Distance (km) Brightness Sun altitude
Rises 06:13:58 0° 343° (NNW) 3,045 ? -5.4°
Reaches altitude 10° 06:18:48 10° 26° (NNE) 2,222 ? -4.5°
Maximum altitude 06:19:31 10° 34° (NE) 2,217 ? -4.4°
Drops below altitude 10° 06:20:16 10° 43° (NE) 2,250 ? -4.3°
Sets 06:25:23 0° 84° (E) 3,272 ? -3.4°
